{"data":{"norad_id":55170,"epoch":"2026-05-25T02:30:58.571712Z","epoch_age_seconds":69464,"freshness":"FRESH","line1":"1 55170U 23004AG  26145.10484458  .00000030  00000+0  44837-4 0  9991","line2":"2 55170  87.9151  10.4612 0002093  80.5154 279.6214 13.17650317164547","mean_motion":13.17650317,"eccentricity":0.0002093,"inclination_deg":87.9151,"raan_deg":10.4612,"arg_perigee_deg":80.5154,"mean_anomaly_deg":279.6214,"bstar":4.4837e-5,"rev_number":16454,"period_min":109.28544405306,"perigee_km":1192.1234272507,"apogee_km":1195.2930016574,"semimajor_km":7571.845214454,"source":"CELESTRAK","updated_at":"2026-05-25T13:38:22.646027Z"}}